Year,Month,Day,Hour,Minute,Value (Times are PST for temperature in C)
2018,06,17,00,00,18.40
2018,06,17,00,01,18.40
2018,06,17,00,02,18.40
2018,06,17,00,03,18.40
2018,06,17,00,04,18.40
2018,06,17,00,05,18.50
2018,06,17,00,06,18.50
2018,06,17,00,07,18.50
2018,06,17,00,08,18.60
2018,06,17,00,09,18.60
2018,06,17,00,10,18.60
2018,06,17,00,11,18.60
2018,06,17,00,12,18.60
2018,06,17,00,13,18.70
2018,06,17,00,14,18.70
2018,06,17,00,15,18.70
2018,06,17,00,16,18.80
2018,06,17,00,17,18.80
2018,06,17,00,18,18.80
2018,06,17,00,19,18.80
2018,06,17,00,20,18.80
2018,06,17,00,21,18.90
2018,06,17,00,22,18.90
2018,06,17,00,23,19.00
2018,06,17,00,24,19.10
2018,06,17,00,25,19.20
2018,06,17,00,26,19.30
2018,06,17,00,27,19.30
2018,06,17,00,28,19.40
2018,06,17,00,29,19.40
2018,06,17,00,30,19.40
2018,06,17,00,31,19.40
2018,06,17,00,32,19.40
2018,06,17,00,33,19.40
2018,06,17,00,34,19.40
2018,06,17,00,35,19.40
2018,06,17,00,36,19.40
2018,06,17,00,37,19.40
2018,06,17,00,38,19.40
2018,06,17,00,39,19.40
2018,06,17,00,40,19.40
2018,06,17,00,41,19.40
2018,06,17,00,42,19.30
2018,06,17,00,43,19.30
2018,06,17,00,44,19.30
2018,06,17,00,45,19.30
2018,06,17,00,46,19.30
2018,06,17,00,47,19.20
2018,06,17,00,48,19.20
2018,06,17,00,49,19.10
2018,06,17,00,50,19.10
2018,06,17,00,51,19.10
2018,06,17,00,52,19.10
2018,06,17,00,53,19.20
2018,06,17,00,54,19.20
2018,06,17,00,55,19.20
2018,06,17,00,56,19.20
2018,06,17,00,57,19.20
2018,06,17,00,58,19.10
2018,06,17,00,59,19.10
2018,06,17,01,00,19.10
2018,06,17,01,01,19.00
2018,06,17,01,02,18.90
2018,06,17,01,03,18.90
2018,06,17,01,04,18.90
2018,06,17,01,05,18.80
2018,06,17,01,06,18.80
2018,06,17,01,07,18.80
2018,06,17,01,08,18.80
2018,06,17,01,09,18.80
2018,06,17,01,10,18.80
2018,06,17,01,11,18.70
2018,06,17,01,12,18.70
2018,06,17,01,13,18.70
2018,06,17,01,14,18.70
2018,06,17,01,15,18.60
2018,06,17,01,16,18.60
2018,06,17,01,17,18.60
2018,06,17,01,18,18.60
2018,06,17,01,19,18.60
2018,06,17,01,20,18.60
2018,06,17,01,21,18.60
2018,06,17,01,22,18.60
2018,06,17,01,23,18.60
2018,06,17,01,24,18.60
2018,06,17,01,25,18.60
2018,06,17,01,26,18.60
2018,06,17,01,27,18.60
2018,06,17,01,28,18.60
2018,06,17,01,29,18.60
2018,06,17,01,30,18.60
2018,06,17,01,31,18.60
2018,06,17,01,32,18.60
2018,06,17,01,33,18.60
2018,06,17,01,34,18.60
2018,06,17,01,35,18.50
2018,06,17,01,36,18.50
2018,06,17,01,37,18.50
2018,06,17,01,38,18.40
2018,06,17,01,39,18.40
2018,06,17,01,40,18.40
2018,06,17,01,41,18.40
2018,06,17,01,42,18.30
2018,06,17,01,43,18.30
2018,06,17,01,44,18.30
2018,06,17,01,45,18.30
2018,06,17,01,46,18.30
2018,06,17,01,47,18.30
2018,06,17,01,48,18.30
2018,06,17,01,49,18.20
2018,06,17,01,50,18.20
2018,06,17,01,51,18.20
2018,06,17,01,52,18.20
2018,06,17,01,53,18.20
2018,06,17,01,54,18.20
2018,06,17,01,55,18.20
2018,06,17,01,56,18.20
2018,06,17,01,57,18.20
2018,06,17,01,58,18.20
2018,06,17,01,59,18.20
2018,06,17,02,00,18.20
2018,06,17,02,01,18.20
2018,06,17,02,02,18.20
2018,06,17,02,03,18.20
2018,06,17,02,04,18.20
2018,06,17,02,05,18.20
2018,06,17,02,06,18.20
2018,06,17,02,07,18.20
2018,06,17,02,08,18.20
2018,06,17,02,09,18.20
2018,06,17,02,10,18.20
2018,06,17,02,11,18.20
2018,06,17,02,12,18.10
2018,06,17,02,13,18.10
2018,06,17,02,14,18.10
2018,06,17,02,15,18.10
2018,06,17,02,16,18.10
2018,06,17,02,17,18.10
2018,06,17,02,18,18.10
2018,06,17,02,19,18.10
2018,06,17,02,20,18.10
2018,06,17,02,21,18.00
2018,06,17,02,22,18.00
2018,06,17,02,23,18.00
2018,06,17,02,24,17.90
2018,06,17,02,25,17.90
2018,06,17,02,26,17.90
2018,06,17,02,27,17.90
2018,06,17,02,28,17.90
2018,06,17,02,29,17.90
2018,06,17,02,30,17.90
2018,06,17,02,31,17.90
2018,06,17,02,32,17.90
2018,06,17,02,33,17.80
2018,06,17,02,34,17.80
2018,06,17,02,35,17.80
2018,06,17,02,36,17.80
2018,06,17,02,37,17.80
2018,06,17,02,38,17.70
2018,06,17,02,39,17.70
2018,06,17,02,40,17.70
2018,06,17,02,41,17.70
2018,06,17,02,42,17.60
2018,06,17,02,43,17.60
2018,06,17,02,44,17.60
2018,06,17,02,45,17.60
2018,06,17,02,46,17.50
2018,06,17,02,47,17.50
2018,06,17,02,48,17.50
2018,06,17,02,49,17.40
2018,06,17,02,50,17.40
2018,06,17,02,51,17.40
2018,06,17,02,52,17.40
2018,06,17,02,53,17.30
2018,06,17,02,54,17.30
2018,06,17,02,55,17.30
2018,06,17,02,56,17.20
2018,06,17,02,57,17.20
2018,06,17,02,58,17.20
2018,06,17,02,59,17.10
2018,06,17,03,00,17.10
2018,06,17,03,01,17.00
2018,06,17,03,02,17.00
2018,06,17,03,03,17.00
2018,06,17,03,04,16.90
2018,06,17,03,05,16.90
2018,06,17,03,06,16.90
2018,06,17,03,07,16.90
2018,06,17,03,08,16.90
2018,06,17,03,09,16.90
2018,06,17,03,10,16.90
2018,06,17,03,11,16.80
2018,06,17,03,12,16.80
2018,06,17,03,13,16.80
2018,06,17,03,14,16.80
2018,06,17,03,15,16.80
2018,06,17,03,16,16.80
2018,06,17,03,17,16.80
2018,06,17,03,18,16.80
2018,06,17,03,19,16.80
2018,06,17,03,20,16.70
2018,06,17,03,21,16.70
2018,06,17,03,22,16.70
2018,06,17,03,23,16.70
2018,06,17,03,24,16.70
2018,06,17,03,25,16.70
2018,06,17,03,26,16.70
2018,06,17,03,27,16.70
2018,06,17,03,28,16.60
2018,06,17,03,29,16.60
2018,06,17,03,30,16.60
2018,06,17,03,31,16.60
2018,06,17,03,32,16.60
2018,06,17,03,33,16.60
2018,06,17,03,34,16.60
2018,06,17,03,35,16.60
2018,06,17,03,36,16.60
2018,06,17,03,37,16.60
2018,06,17,03,38,16.60
2018,06,17,03,39,16.60
2018,06,17,03,40,16.60
2018,06,17,03,41,16.60
2018,06,17,03,42,16.60
2018,06,17,03,43,16.60
2018,06,17,03,44,16.60
2018,06,17,03,45,16.60
2018,06,17,03,46,16.60
2018,06,17,03,47,16.60
2018,06,17,03,48,16.60
2018,06,17,03,49,16.60
2018,06,17,03,50,16.70
2018,06,17,03,51,16.70
2018,06,17,03,52,16.70
2018,06,17,03,53,16.70
2018,06,17,03,54,16.70
2018,06,17,03,55,16.70
2018,06,17,03,56,16.70
2018,06,17,03,57,16.70
2018,06,17,03,58,16.70
2018,06,17,03,59,16.70
2018,06,17,04,00,16.70
2018,06,17,04,01,16.60
2018,06,17,04,02,16.60
2018,06,17,04,03,16.60
2018,06,17,04,04,16.60
2018,06,17,04,05,16.60
2018,06,17,04,06,16.60
2018,06,17,04,07,16.60
2018,06,17,04,08,16.60
2018,06,17,04,09,16.60
2018,06,17,04,10,16.60
2018,06,17,04,11,16.50
2018,06,17,04,12,16.50
2018,06,17,04,13,16.50
2018,06,17,04,14,16.50
2018,06,17,04,15,16.40
2018,06,17,04,16,16.40
2018,06,17,04,17,16.40
2018,06,17,04,18,16.40
2018,06,17,04,19,16.40
2018,06,17,04,20,16.30
2018,06,17,04,21,16.30
2018,06,17,04,22,16.30
2018,06,17,04,23,16.20
2018,06,17,04,24,16.20
2018,06,17,04,25,16.20
2018,06,17,04,26,16.20
2018,06,17,04,27,16.20
2018,06,17,04,28,16.20
2018,06,17,04,29,16.20
2018,06,17,04,30,16.20
2018,06,17,04,31,16.20
2018,06,17,04,32,16.20
2018,06,17,04,33,16.20
2018,06,17,04,34,16.20
2018,06,17,04,35,16.20
2018,06,17,04,36,16.20
2018,06,17,04,37,16.20
2018,06,17,04,38,16.10
2018,06,17,04,39,16.10
2018,06,17,04,40,16.10
2018,06,17,04,41,16.00
2018,06,17,04,42,15.90
2018,06,17,04,43,15.90
2018,06,17,04,44,15.90
2018,06,17,04,45,15.90
2018,06,17,04,46,15.80
2018,06,17,04,47,15.80
2018,06,17,04,48,15.80
2018,06,17,04,49,15.80
2018,06,17,04,50,15.70
2018,06,17,04,51,15.70
2018,06,17,04,52,15.70
2018,06,17,04,53,15.70
2018,06,17,04,54,15.70
2018,06,17,04,55,15.70
2018,06,17,04,56,15.60
2018,06,17,04,57,15.60
2018,06,17,04,58,15.60
2018,06,17,04,59,15.60
2018,06,17,05,00,15.50
2018,06,17,05,01,15.50
2018,06,17,05,02,15.40
2018,06,17,05,03,15.40
2018,06,17,05,04,15.40
2018,06,17,05,05,15.40
2018,06,17,05,06,15.40
2018,06,17,05,07,15.40
2018,06,17,05,08,15.40
2018,06,17,05,09,15.40
2018,06,17,05,10,15.40
2018,06,17,05,11,15.40
2018,06,17,05,12,15.40
2018,06,17,05,13,15.40
2018,06,17,05,14,15.30
2018,06,17,05,15,15.30
2018,06,17,05,16,15.30
2018,06,17,05,17,15.30
2018,06,17,05,18,15.30
2018,06,17,05,19,15.30
2018,06,17,05,20,15.30
2018,06,17,05,21,15.30
2018,06,17,05,22,15.30
2018,06,17,05,23,15.30
2018,06,17,05,24,15.30
2018,06,17,05,25,15.30
2018,06,17,05,26,15.30
2018,06,17,05,27,15.30
2018,06,17,05,28,15.30
2018,06,17,05,29,15.30
2018,06,17,05,30,15.30
2018,06,17,05,31,15.30
2018,06,17,05,32,15.20
2018,06,17,05,33,15.20
2018,06,17,05,34,15.20
2018,06,17,05,35,15.20
2018,06,17,05,36,15.10
2018,06,17,05,37,15.10
2018,06,17,05,38,15.10
2018,06,17,05,39,15.00
2018,06,17,05,40,15.00
2018,06,17,05,41,14.90
2018,06,17,05,42,14.90
2018,06,17,05,43,14.80
2018,06,17,05,44,14.80
2018,06,17,05,45,14.80
2018,06,17,05,46,14.80
2018,06,17,05,47,14.80
2018,06,17,05,48,14.90
2018,06,17,05,49,14.90
2018,06,17,05,50,14.90
2018,06,17,05,51,14.90
2018,06,17,05,52,14.90
2018,06,17,05,53,15.00
2018,06,17,05,54,15.00
2018,06,17,05,55,15.00
2018,06,17,05,56,15.10
2018,06,17,05,57,15.10
2018,06,17,05,58,15.10
2018,06,17,05,59,15.00
2018,06,17,06,00,15.00
2018,06,17,06,01,15.00
2018,06,17,06,02,15.00
2018,06,17,06,03,14.90
2018,06,17,06,04,14.90
2018,06,17,06,05,14.90
2018,06,17,06,06,14.90
2018,06,17,06,07,14.90
2018,06,17,06,08,14.90
2018,06,17,06,09,14.80
2018,06,17,06,10,14.80
2018,06,17,06,11,14.80
2018,06,17,06,12,14.80
2018,06,17,06,13,14.90
2018,06,17,06,14,14.90
2018,06,17,06,15,14.90
2018,06,17,06,16,14.90
2018,06,17,06,17,15.00
2018,06,17,06,18,15.00
2018,06,17,06,19,15.00
2018,06,17,06,20,15.00
2018,06,17,06,21,15.00
2018,06,17,06,22,15.00
2018,06,17,06,23,15.10
2018,06,17,06,24,15.10
2018,06,17,06,25,15.10
2018,06,17,06,26,15.10
2018,06,17,06,27,15.20
2018,06,17,06,28,15.20
2018,06,17,06,29,15.20
2018,06,17,06,30,15.30
2018,06,17,06,31,15.30
2018,06,17,06,32,15.30
2018,06,17,06,33,15.30
2018,06,17,06,34,15.40
2018,06,17,06,35,15.40
2018,06,17,06,36,15.40
2018,06,17,06,37,15.40
2018,06,17,06,38,15.50
2018,06,17,06,39,15.50
2018,06,17,06,40,15.50
2018,06,17,06,41,15.50
2018,06,17,06,42,15.60
2018,06,17,06,43,15.60
2018,06,17,06,44,15.60
2018,06,17,06,45,15.60
2018,06,17,06,46,15.60
2018,06,17,06,47,15.60
2018,06,17,06,48,15.60
2018,06,17,06,49,15.60
2018,06,17,06,50,15.60
2018,06,17,06,51,15.60
2018,06,17,06,52,15.60
2018,06,17,06,53,15.60
2018,06,17,06,54,15.60
2018,06,17,06,55,15.60
2018,06,17,06,56,15.60
2018,06,17,06,57,15.70
2018,06,17,06,58,15.70
2018,06,17,06,59,15.70
2018,06,17,07,00,15.70
2018,06,17,07,01,15.80
2018,06,17,07,02,15.80
2018,06,17,07,03,15.80
2018,06,17,07,04,15.90
2018,06,17,07,05,15.90
2018,06,17,07,06,15.90
2018,06,17,07,07,16.00
2018,06,17,07,08,16.00
2018,06,17,07,09,16.00
2018,06,17,07,10,16.10
2018,06,17,07,11,16.10
2018,06,17,07,12,16.10
2018,06,17,07,13,16.20
2018,06,17,07,14,16.20
2018,06,17,07,15,16.20
2018,06,17,07,16,16.20
2018,06,17,07,17,16.30
2018,06,17,07,18,16.30
2018,06,17,07,19,16.30
2018,06,17,07,20,16.30
2018,06,17,07,21,16.30
2018,06,17,07,22,16.30
2018,06,17,07,23,16.30
2018,06,17,07,24,16.30
2018,06,17,07,25,16.40
2018,06,17,07,26,16.40
2018,06,17,07,27,16.40
2018,06,17,07,28,16.40
2018,06,17,07,29,16.40
2018,06,17,07,30,16.40
2018,06,17,07,31,16.40
2018,06,17,07,32,16.50
2018,06,17,07,33,16.50
2018,06,17,07,34,16.50
2018,06,17,07,35,16.60
2018,06,17,07,36,16.60
2018,06,17,07,37,16.60
2018,06,17,07,38,16.60
2018,06,17,07,39,16.60
2018,06,17,07,40,16.70
2018,06,17,07,41,16.70
2018,06,17,07,42,16.70
2018,06,17,07,43,16.70
2018,06,17,07,44,16.70
2018,06,17,07,45,16.70
2018,06,17,07,46,16.80
2018,06,17,07,47,16.80
2018,06,17,07,48,16.80
2018,06,17,07,49,16.80
2018,06,17,07,50,16.80
2018,06,17,07,51,16.80
2018,06,17,07,52,16.80
2018,06,17,07,53,16.80
2018,06,17,07,54,16.90
2018,06,17,07,55,16.90
2018,06,17,07,56,16.90
2018,06,17,07,57,16.90
2018,06,17,07,58,17.00
2018,06,17,07,59,17.00
2018,06,17,08,00,17.10
2018,06,17,08,01,17.10
2018,06,17,08,02,17.10
2018,06,17,08,03,17.20
2018,06,17,08,04,17.20
2018,06,17,08,05,17.20
2018,06,17,08,06,17.20
2018,06,17,08,07,17.20
2018,06,17,08,08,17.20
2018,06,17,08,09,17.20
2018,06,17,08,10,17.30
2018,06,17,08,11,17.30
2018,06,17,08,12,17.30
2018,06,17,08,13,17.30
2018,06,17,08,14,17.40
2018,06,17,08,15,17.40
2018,06,17,08,16,17.40
2018,06,17,08,17,17.40
2018,06,17,08,18,17.50
2018,06,17,08,19,17.50
2018,06,17,08,20,17.60
2018,06,17,08,21,17.70
2018,06,17,08,22,17.70
2018,06,17,08,23,17.80
2018,06,17,08,24,17.90
2018,06,17,08,25,17.90
2018,06,17,08,26,18.00
2018,06,17,08,27,18.00
2018,06,17,08,28,18.00
2018,06,17,08,29,18.00
2018,06,17,08,30,18.10
2018,06,17,08,31,18.10
2018,06,17,08,32,18.10
2018,06,17,08,33,18.10
2018,06,17,08,34,18.00
2018,06,17,08,35,18.00
2018,06,17,08,36,18.00
2018,06,17,08,37,18.00
2018,06,17,08,38,18.00
2018,06,17,08,39,18.00
2018,06,17,08,40,18.00
2018,06,17,08,41,18.00
2018,06,17,08,42,18.10
2018,06,17,08,43,18.10
2018,06,17,08,44,18.20
2018,06,17,08,45,18.20
2018,06,17,08,46,18.30
2018,06,17,08,47,18.40
2018,06,17,08,48,18.40
2018,06,17,08,49,18.40
2018,06,17,08,50,18.50
2018,06,17,08,51,18.50
2018,06,17,08,52,18.50
2018,06,17,08,53,18.60
2018,06,17,08,54,18.70
2018,06,17,08,55,18.80
2018,06,17,08,56,18.80
2018,06,17,08,57,18.90
2018,06,17,08,58,19.00
2018,06,17,08,59,19.10
2018,06,17,09,00,19.20
2018,06,17,09,01,19.20
2018,06,17,09,02,19.30
2018,06,17,09,03,19.40
2018,06,17,09,04,19.50
2018,06,17,09,05,19.50
2018,06,17,09,06,19.60
2018,06,17,09,07,19.70
2018,06,17,09,08,19.70
2018,06,17,09,09,19.70
2018,06,17,09,10,19.80
2018,06,17,09,11,19.80
2018,06,17,09,12,19.70
2018,06,17,09,13,19.70
2018,06,17,09,14,19.70
2018,06,17,09,15,19.70
2018,06,17,09,16,19.80
2018,06,17,09,17,19.80
2018,06,17,09,18,19.80
2018,06,17,09,19,19.80
2018,06,17,09,20,19.80
2018,06,17,09,21,19.80
2018,06,17,09,22,19.80
2018,06,17,09,23,19.80
2018,06,17,09,24,19.80
2018,06,17,09,25,19.80
2018,06,17,09,26,19.80
2018,06,17,09,27,19.90
2018,06,17,09,28,19.90
2018,06,17,09,29,20.00
2018,06,17,09,30,20.00
2018,06,17,09,31,20.10
2018,06,17,09,32,20.20
2018,06,17,09,33,20.30
2018,06,17,09,34,20.30
2018,06,17,09,35,20.40
2018,06,17,09,36,20.40
2018,06,17,09,37,20.50
2018,06,17,09,38,20.50
2018,06,17,09,39,20.60
2018,06,17,09,40,20.60
2018,06,17,09,41,20.70
2018,06,17,09,42,20.80
2018,06,17,09,43,20.80
2018,06,17,09,44,20.80
2018,06,17,09,45,20.90
2018,06,17,09,46,20.90
2018,06,17,09,47,20.90
2018,06,17,09,48,20.90
2018,06,17,09,49,20.90
2018,06,17,09,50,20.90
2018,06,17,09,51,20.90
2018,06,17,09,52,20.90
2018,06,17,09,53,20.90
2018,06,17,09,54,20.90
2018,06,17,09,55,20.90
2018,06,17,09,56,20.80
2018,06,17,09,57,20.80
2018,06,17,09,58,20.80
2018,06,17,09,59,20.90
2018,06,17,10,00,20.90
2018,06,17,10,01,21.00
2018,06,17,10,02,21.00
2018,06,17,10,03,21.10
2018,06,17,10,04,21.10
2018,06,17,10,05,21.20
2018,06,17,10,06,21.20
2018,06,17,10,07,21.20
2018,06,17,10,08,21.30
2018,06,17,10,09,21.30
2018,06,17,10,10,21.30
2018,06,17,10,11,21.40
2018,06,17,10,12,21.40
2018,06,17,10,13,21.50
2018,06,17,10,14,21.50
2018,06,17,10,15,21.60
2018,06,17,10,16,21.80
2018,06,17,10,17,21.90
2018,06,17,10,18,22.00
2018,06,17,10,19,22.20
2018,06,17,10,20,22.20
2018,06,17,10,21,22.30
2018,06,17,10,22,22.30
2018,06,17,10,23,22.40
2018,06,17,10,24,22.50
2018,06,17,10,25,22.60
2018,06,17,10,26,22.70
2018,06,17,10,27,22.80
2018,06,17,10,28,22.90
2018,06,17,10,29,22.90
2018,06,17,10,30,22.90
2018,06,17,10,31,23.00
2018,06,17,10,32,23.00
2018,06,17,10,33,23.10
2018,06,17,10,34,23.10
2018,06,17,10,35,23.10
2018,06,17,10,36,23.20
2018,06,17,10,37,23.20
2018,06,17,10,38,23.20
2018,06,17,10,39,23.20
2018,06,17,10,40,23.20
2018,06,17,10,41,23.20
2018,06,17,10,42,23.20
2018,06,17,10,43,23.20
2018,06,17,10,44,23.20
2018,06,17,10,45,23.20
2018,06,17,10,46,23.20
2018,06,17,10,47,23.30
2018,06,17,10,48,23.40
2018,06,17,10,49,23.50
2018,06,17,10,50,23.60
2018,06,17,10,51,23.60
2018,06,17,10,52,23.70
2018,06,17,10,53,23.80
2018,06,17,10,54,23.80
2018,06,17,10,55,23.90
2018,06,17,10,56,24.00
2018,06,17,10,57,24.00
2018,06,17,10,58,24.00
2018,06,17,10,59,24.10
2018,06,17,11,00,24.00
2018,06,17,11,01,24.00
2018,06,17,11,02,24.00
2018,06,17,11,03,23.90
2018,06,17,11,04,23.90
2018,06,17,11,05,24.00
2018,06,17,11,06,24.00
2018,06,17,11,07,24.10
2018,06,17,11,08,24.10
2018,06,17,11,09,24.20
2018,06,17,11,10,24.30
2018,06,17,11,11,24.20
2018,06,17,11,12,24.20
2018,06,17,11,13,24.20
2018,06,17,11,14,24.20
2018,06,17,11,15,24.20
2018,06,17,11,16,24.30
2018,06,17,11,17,24.30
2018,06,17,11,18,24.30
2018,06,17,11,19,24.30
2018,06,17,11,20,24.30
2018,06,17,11,21,24.30
2018,06,17,11,22,24.40
2018,06,17,11,23,24.40
2018,06,17,11,24,24.50
2018,06,17,11,25,24.60
2018,06,17,11,26,24.70
2018,06,17,11,27,24.80
2018,06,17,11,28,24.80
2018,06,17,11,29,24.80
2018,06,17,11,30,24.80
2018,06,17,11,31,24.80
2018,06,17,11,32,24.80
2018,06,17,11,33,24.80
2018,06,17,11,34,24.90
2018,06,17,11,35,25.00
2018,06,17,11,36,25.00
2018,06,17,11,37,25.10
2018,06,17,11,38,25.10
2018,06,17,11,39,25.10
2018,06,17,11,40,25.20
2018,06,17,11,41,25.10
2018,06,17,11,42,25.10
2018,06,17,11,43,25.10
2018,06,17,11,44,25.10
2018,06,17,11,45,25.10
2018,06,17,11,46,25.10
2018,06,17,11,47,25.00
2018,06,17,11,48,25.00
2018,06,17,11,49,24.80
2018,06,17,11,50,24.60
2018,06,17,11,51,24.50
2018,06,17,11,52,24.50
2018,06,17,11,53,24.40
2018,06,17,11,54,24.30
2018,06,17,11,55,24.20
2018,06,17,11,56,24.20
2018,06,17,11,57,24.10
2018,06,17,11,58,24.10
2018,06,17,11,59,24.10
2018,06,17,12,00,24.00
2018,06,17,12,01,24.00
2018,06,17,12,02,24.00
2018,06,17,12,03,24.00
2018,06,17,12,04,23.90
2018,06,17,12,05,23.90
2018,06,17,12,06,23.90
2018,06,17,12,07,23.90
2018,06,17,12,08,23.90
2018,06,17,12,09,23.90
2018,06,17,12,10,23.90
2018,06,17,12,11,23.90
2018,06,17,12,12,23.90
2018,06,17,12,13,24.00
2018,06,17,12,14,24.00
2018,06,17,12,15,24.10
2018,06,17,12,16,24.20
2018,06,17,12,17,24.30
2018,06,17,12,18,24.50
2018,06,17,12,19,24.50
2018,06,17,12,20,24.60
2018,06,17,12,21,24.70
2018,06,17,12,22,24.70
2018,06,17,12,23,24.80
2018,06,17,12,24,24.90
2018,06,17,12,25,24.90
2018,06,17,12,26,24.90
2018,06,17,12,27,25.00
2018,06,17,12,28,25.10
2018,06,17,12,29,25.20
2018,06,17,12,30,25.30
2018,06,17,12,31,25.20
2018,06,17,12,32,25.20
2018,06,17,12,33,25.20
2018,06,17,12,34,25.30
2018,06,17,12,35,25.30
2018,06,17,12,36,25.30
2018,06,17,12,37,25.30
2018,06,17,12,38,25.40
2018,06,17,12,39,25.40
2018,06,17,12,40,25.40
2018,06,17,12,41,25.40
2018,06,17,12,42,25.50
2018,06,17,12,43,25.50
2018,06,17,12,44,25.60
2018,06,17,12,45,25.60
2018,06,17,12,46,25.60
2018,06,17,12,47,25.70
2018,06,17,12,48,25.70
2018,06,17,12,49,25.70
2018,06,17,12,50,25.80
2018,06,17,12,51,25.80
2018,06,17,12,52,25.80
2018,06,17,12,53,25.80
2018,06,17,12,54,25.80
2018,06,17,12,55,25.70
2018,06,17,12,56,25.70
2018,06,17,12,57,25.60
2018,06,17,12,58,25.60
2018,06,17,12,59,25.60
2018,06,17,13,00,25.60
2018,06,17,13,01,25.60
2018,06,17,13,02,25.60
2018,06,17,13,03,25.60
2018,06,17,13,04,25.50
2018,06,17,13,05,25.50
2018,06,17,13,06,25.50
2018,06,17,13,07,25.50
2018,06,17,13,08,25.60
2018,06,17,13,09,25.60
2018,06,17,13,10,25.70
2018,06,17,13,11,25.70
2018,06,17,13,12,25.70
2018,06,17,13,13,25.70
2018,06,17,13,14,25.80
2018,06,17,13,15,25.80
2018,06,17,13,16,25.90
2018,06,17,13,17,26.10
2018,06,17,13,18,26.20
2018,06,17,13,19,26.30
2018,06,17,13,20,26.40
2018,06,17,13,21,26.40
2018,06,17,13,22,26.40
2018,06,17,13,23,26.30
2018,06,17,13,24,26.20
2018,06,17,13,25,26.10
2018,06,17,13,26,26.00
2018,06,17,13,27,25.90
2018,06,17,13,28,25.80
2018,06,17,13,29,25.80
2018,06,17,13,30,25.80
2018,06,17,13,31,25.80
2018,06,17,13,32,25.80
2018,06,17,13,33,25.90
2018,06,17,13,34,26.00
2018,06,17,13,35,26.10
2018,06,17,13,36,26.20
2018,06,17,13,37,26.40
2018,06,17,13,38,26.50
2018,06,17,13,39,26.60
2018,06,17,13,40,26.70
2018,06,17,13,41,26.70
2018,06,17,13,42,26.80
2018,06,17,13,43,26.80
2018,06,17,13,44,26.80
2018,06,17,13,45,26.90
2018,06,17,13,46,26.90
2018,06,17,13,47,26.90
2018,06,17,13,48,26.90
2018,06,17,13,49,26.90
2018,06,17,13,50,26.90
2018,06,17,13,51,26.90
2018,06,17,13,52,26.90
2018,06,17,13,53,26.80
2018,06,17,13,54,26.90
2018,06,17,13,55,26.90
2018,06,17,13,56,26.90
2018,06,17,13,57,27.00
2018,06,17,13,58,27.20
2018,06,17,13,59,27.30
2018,06,17,14,00,27.40
2018,06,17,14,01,27.60
2018,06,17,14,02,27.70
2018,06,17,14,03,27.80
2018,06,17,14,04,27.80
2018,06,17,14,05,27.90
2018,06,17,14,06,28.00
2018,06,17,14,07,28.10
2018,06,17,14,08,28.20
2018,06,17,14,09,28.30
2018,06,17,14,10,28.30
2018,06,17,14,11,28.30
2018,06,17,14,12,28.30
2018,06,17,14,13,28.20
2018,06,17,14,14,28.20
2018,06,17,14,15,28.20
2018,06,17,14,16,28.20
2018,06,17,14,17,28.30
2018,06,17,14,18,28.30
2018,06,17,14,19,28.30
2018,06,17,14,20,28.40
2018,06,17,14,21,28.40
2018,06,17,14,22,28.50
2018,06,17,14,23,28.60
2018,06,17,14,24,28.70
2018,06,17,14,25,28.80
2018,06,17,14,26,28.80
2018,06,17,14,27,28.80
2018,06,17,14,28,28.90
2018,06,17,14,29,28.90
2018,06,17,14,30,28.90
2018,06,17,14,31,29.00
2018,06,17,14,32,29.00
2018,06,17,14,33,29.10
2018,06,17,14,34,29.10
2018,06,17,14,35,29.10
2018,06,17,14,36,29.20
2018,06,17,14,37,29.10
2018,06,17,14,38,29.10
2018,06,17,14,39,29.10
2018,06,17,14,40,29.10
2018,06,17,14,41,29.10
2018,06,17,14,42,29.10
2018,06,17,14,43,29.10
2018,06,17,14,44,29.10
2018,06,17,14,45,29.10
2018,06,17,14,46,29.00
2018,06,17,14,47,29.00
2018,06,17,14,48,29.00
2018,06,17,14,49,29.00
2018,06,17,14,50,29.00
2018,06,17,14,51,29.00
2018,06,17,14,52,29.00
2018,06,17,14,53,29.00
2018,06,17,14,54,29.00
2018,06,17,14,55,29.00
2018,06,17,14,56,29.10
2018,06,17,14,57,29.20
2018,06,17,14,58,29.20
2018,06,17,14,59,29.20
2018,06,17,15,00,29.20
2018,06,17,15,01,29.30
2018,06,17,15,02,29.30
2018,06,17,15,03,29.40
2018,06,17,15,04,29.50
2018,06,17,15,05,29.50
2018,06,17,15,06,29.60
2018,06,17,15,07,29.70
2018,06,17,15,08,29.80
2018,06,17,15,09,29.90
2018,06,17,15,10,29.90
2018,06,17,15,11,29.90
2018,06,17,15,12,29.90
2018,06,17,15,13,29.90
2018,06,17,15,14,29.90
2018,06,17,15,15,30.00
2018,06,17,15,16,30.00
2018,06,17,15,17,30.10
2018,06,17,15,18,30.10
2018,06,17,15,19,30.20
2018,06,17,15,20,30.20
2018,06,17,15,21,30.10
2018,06,17,15,22,30.10
2018,06,17,15,23,30.00
2018,06,17,15,24,29.90
2018,06,17,15,25,29.90
2018,06,17,15,26,29.80
2018,06,17,15,27,29.80
2018,06,17,15,28,29.80
2018,06,17,15,29,29.90
2018,06,17,15,30,30.00
2018,06,17,15,31,30.10
2018,06,17,15,32,30.20
2018,06,17,15,33,30.20
2018,06,17,15,34,30.20
2018,06,17,15,35,30.30
2018,06,17,15,36,30.30
2018,06,17,15,37,30.40
2018,06,17,15,38,30.40
2018,06,17,15,39,30.50
2018,06,17,15,40,30.60
2018,06,17,15,41,30.60
2018,06,17,15,42,30.60
2018,06,17,15,43,30.60
2018,06,17,15,44,30.60
2018,06,17,15,45,30.60
2018,06,17,15,46,30.60
2018,06,17,15,47,30.70
2018,06,17,15,48,30.80
2018,06,17,15,49,30.90
2018,06,17,15,50,30.90
2018,06,17,15,51,30.80
2018,06,17,15,52,30.80
2018,06,17,15,53,30.80
2018,06,17,15,54,30.90
2018,06,17,15,55,30.90
2018,06,17,15,56,31.00
2018,06,17,15,57,31.10
2018,06,17,15,58,31.20
2018,06,17,15,59,31.20
2018,06,17,16,00,31.20
2018,06,17,16,01,31.20
2018,06,17,16,02,31.20
2018,06,17,16,03,31.10
2018,06,17,16,04,31.10
2018,06,17,16,05,31.10
2018,06,17,16,06,31.10
2018,06,17,16,07,31.00
2018,06,17,16,08,31.10
2018,06,17,16,09,31.10
2018,06,17,16,10,31.10
2018,06,17,16,11,31.20
2018,06,17,16,12,31.30
2018,06,17,16,13,31.30
2018,06,17,16,14,31.30
2018,06,17,16,15,31.40
2018,06,17,16,16,31.40
2018,06,17,16,17,31.40
2018,06,17,16,18,31.40
2018,06,17,16,19,31.40
2018,06,17,16,20,31.50
2018,06,17,16,21,31.60
2018,06,17,16,22,31.60
2018,06,17,16,23,31.70
2018,06,17,16,24,31.70
2018,06,17,16,25,31.70
2018,06,17,16,26,31.80
2018,06,17,16,27,31.80
2018,06,17,16,28,31.90
2018,06,17,16,29,32.00
2018,06,17,16,30,32.00
2018,06,17,16,31,32.10
2018,06,17,16,32,32.10
2018,06,17,16,33,32.10
2018,06,17,16,34,32.10
2018,06,17,16,35,32.10
2018,06,17,16,36,32.10
2018,06,17,16,37,32.00
2018,06,17,16,38,31.90
2018,06,17,16,39,31.80
2018,06,17,16,40,31.70
2018,06,17,16,41,31.60
2018,06,17,16,42,31.40
2018,06,17,16,43,31.30
2018,06,17,16,44,31.30
2018,06,17,16,45,31.30
2018,06,17,16,46,31.30
2018,06,17,16,47,31.40
2018,06,17,16,48,31.40
2018,06,17,16,49,31.40
2018,06,17,16,50,31.40
2018,06,17,16,51,31.50
2018,06,17,16,52,31.60
2018,06,17,16,53,31.70
2018,06,17,16,54,31.70
2018,06,17,16,55,31.70
2018,06,17,16,56,31.70
2018,06,17,16,57,31.80
2018,06,17,16,58,31.80
2018,06,17,16,59,31.70
2018,06,17,17,00,31.70
2018,06,17,17,01,31.70
2018,06,17,17,02,31.70
2018,06,17,17,03,31.70
2018,06,17,17,04,31.70
2018,06,17,17,05,31.80
2018,06,17,17,06,31.90
2018,06,17,17,07,31.90
2018,06,17,17,08,31.90
2018,06,17,17,09,31.90
2018,06,17,17,10,31.90
2018,06,17,17,11,31.90
2018,06,17,17,12,31.90
2018,06,17,17,13,32.00
2018,06,17,17,14,32.10
2018,06,17,17,15,32.10
2018,06,17,17,16,32.20
2018,06,17,17,17,32.20
2018,06,17,17,18,32.30
2018,06,17,17,19,32.40